TimeMDT,TemperatureF,Dew PointF,Humidity,Sea Level PressureIn,VisibilityMPH,Wind Direction,Wind SpeedMPH,Gust SpeedMPH,PrecipitationIn,Events,Conditions,WindDirDegrees,DateUTC
12:53 AM,69.1,53.1,57,29.97,10.0,Calm,Calm,-,N/A,,Clear,0,2013-07-15 06:53:00
1:53 AM,69.1,55.0,61,29.97,10.0,SSE,8.1,-,N/A,,Clear,160,2013-07-15 07:53:00
2:53 AM,68.0,59.0,73,29.96,10.0,SSE,12.7,18.4,N/A,,Clear,150,2013-07-15 08:53:00
3:53 AM,64.0,55.9,75,29.96,10.0,South,8.1,-,N/A,,Clear,170,2013-07-15 09:53:00
4:53 AM,63.0,57.0,81,29.96,10.0,South,10.4,-,N/A,,Clear,180,2013-07-15 10:53:00
5:53 AM,60.1,55.0,83,29.96,10.0,South,5.8,-,N/A,,Clear,180,2013-07-15 11:53:00
6:53 AM,66.0,55.9,70,29.95,10.0,NNW,3.5,-,N/A,,Clear,330,2013-07-15 12:53:00
7:53 AM,68.0,55.0,63,29.96,10.0,Calm,Calm,-,N/A,,Clear,0,2013-07-15 13:53:00
8:53 AM,72.0,57.0,59,29.94,10.0,Calm,Calm,-,N/A,,Scattered Clouds,0,2013-07-15 14:53:00
9:53 AM,77.0,59.0,54,29.94,10.0,Calm,Calm,-,N/A,,Clear,0,2013-07-15 15:53:00
10:53 AM,81.0,59.0,47,29.93,10.0,Calm,Calm,-,N/A,,Clear,0,2013-07-15 16:53:00
11:53 AM,82.9,57.0,41,29.89,10.0,ESE,4.6,-,N/A,,Clear,110,2013-07-15 17:53:00
12:53 PM,86.0,54.0,33,29.88,10.0,SSW,4.6,-,N/A,,Partly Cloudy,200,2013-07-15 18:53:00
1:53 PM,90.0,54.0,29,29.85,10.0,ESE,5.8,-,N/A,,Clear,120,2013-07-15 19:53:00
2:53 PM,93.0,50.0,23,29.83,10.0,East,4.6,-,N/A,,Clear,90,2013-07-15 20:53:00
3:53 PM,93.0,44.1,18,29.81,10.0,West,5.8,-,N/A,,Clear,270,2013-07-15 21:53:00
4:53 PM,93.0,48.0,21,29.81,10.0,Variable,3.5,-,N/A,,Clear,0,2013-07-15 22:53:00
5:53 PM,93.0,48.9,22,29.81,10.0,NNW,13.8,21.9,N/A,,Clear,330,2013-07-15 23:53:00
6:53 PM,91.0,50.0,24,29.81,10.0,NNW,10.4,-,N/A,,Clear,340,2013-07-16 00:53:00
7:53 PM,84.9,52.0,32,29.82,10.0,East,11.5,-,N/A,,Clear,90,2013-07-16 01:53:00
8:53 PM,81.0,53.1,38,29.83,10.0,Variable,3.5,-,N/A,,Clear,0,2013-07-16 02:53:00
9:53 PM,75.9,54.0,46,29.86,10.0,SE,6.9,-,N/A,,Clear,140,2013-07-16 03:53:00
10:53 PM,73.9,52.0,46,29.86,10.0,SE,5.8,-,N/A,,Clear,140,2013-07-16 04:53:00
11:53 PM,73.9,54.0,50,29.85,10.0,SSE,6.9,-,N/A,,Clear,150,2013-07-16 05:53:00